Погода в Ельце-Маланином

Россия / Липецкая область     52°13′42″N   39°02′48″E
темп.,
°C
ветер,
м/с
пор.,
м/с
влажн.,
%
обл.,
%
осадки,
мм/ч
давл.,
гПа
погр.,
м
25 мая, ср
ср2500:00+5ссв33875 0.0 101250
03:00+4с239388 0.0 101339
06:00+6с3580100 0.0 1014246
09:00+8с3469100 0.0 1015615
12:00+11сз4658100 0.0 10161368
15:00+11с3461100 0.0 1016963
18:00+11зсз1268100 0.0 1016359
21:00+9ююз117195 0.0 101610
26 мая, чт
чт2600:00+7юз228388 0.0 101618
03:00+8ююз367945 0.0 1015148
06:00+9зюз36884 0.0 1014163
09:00+16зюз476778 0.0 1013595
12:00+18юз6958100 0.1 10121268
15:00+14юз81376100 0.3 1010906
18:00+11ююз111890100 3.7 10071041
21:00+12юз9158983 4.4 10051118
27 мая, пт
пт2700:00+11зюз1018862 0.1 1005997
03:00+10зюз8169294 0.1 1005531
06:00+11зюз71492100 0.2 1004618
09:00+11зсз8148784 1.4 10051101
12:00+16зсз1013605 0.3 10061883
15:00+15зсз10136350 0.4 10081659
18:00+14з612705 0.0 10081492
21:00+10юз49817 0.1 1009153
28 мая, сб
сб2800:00+10ююз51291100 0.0 1008290
03:00+12ююз8198186 0.0 1005560
06:00+12юз81691100 1.9 1005813
09:00+13зюз61287100 2.9 1007896
12:00+16зюз8106656 0.3 10081682
15:00+17зюз710564 0.4 10101946
18:00+16зюз5864100 0.1 1011954
21:00+12юз3378100 0.1 101253
29 мая, вс
вс2900:00+11ююз3382100 0.0 101354
03:00+11ююз4982100 0.1 1013225
06:00+11зюз4894100 2.9 1014362
09:00+11юз3790100 3.6 1015439
12:00+17з575711 0.1 10151793
15:00+18з575197 0.1 10162088
18:00+17зсз3565100 0.0 1017368
21:00+12зсз2276100 0.0 101919